Time,TemperatureF,DewpointF,PressureIn,WindDirection,WindDirectionDegrees,WindSpeedMPH,WindSpeedGustMPH,Humidity,HourlyPrecipIn,Conditions,Clouds,dailyrainin,SoftwareType,DateUTC
2013-08-07 04:05:00,61.0,56.8,29.72,North,9,0.0,14.0,86,0.00,,,0.00,Wunderground v.1.13,2013-08-07 10:05:00,
2013-08-07 04:15:00,60.7,57.1,29.72,North,9,0.0,14.0,88,0.00,,,0.00,Wunderground v.1.13,2013-08-07 10:15:00,
2013-08-07 04:20:00,60.5,56.9,29.72,North,9,0.0,14.0,88,0.00,,,0.00,Wunderground v.1.13,2013-08-07 10:20:00,
2013-08-07 04:25:00,60.5,57.2,29.72,North,9,0.0,14.0,89,0.00,,,0.00,Wunderground v.1.13,2013-08-07 10:25:00,
2013-08-07 04:30:00,60.4,57.1,29.72,North,9,0.0,14.0,89,0.00,,,0.00,Wunderground v.1.13,2013-08-07 10:30:00,
2013-08-07 04:35:00,60.2,56.9,29.72,North,9,0.0,14.0,89,0.00,,,0.00,Wunderground v.1.13,2013-08-07 10:35:00,
2013-08-07 04:40:00,60.1,56.8,29.72,North,9,0.0,14.0,89,0.00,,,0.00,Wunderground v.1.13,2013-08-07 10:40:00,
2013-08-07 04:45:00,59.8,56.6,29.72,North,9,0.0,14.0,89,0.00,,,0.00,Wunderground v.1.13,2013-08-07 10:45:00,
2013-08-07 04:55:00,60.1,57.5,29.72,North,9,0.0,14.0,91,0.00,,,0.00,Wunderground v.1.13,2013-08-07 10:55:00,
2013-08-07 05:00:00,60.9,58.3,29.72,North,9,0.0,14.0,91,0.00,,,0.00,Wunderground v.1.13,2013-08-07 11:00:00,
2013-08-07 05:05:00,61.6,58.6,29.73,North,9,0.0,14.0,90,0.00,,,0.00,Wunderground v.1.13,2013-08-07 11:05:00,
2013-08-07 05:10:00,62.3,59.0,29.73,North,9,0.0,14.0,89,0.00,,,0.00,Wunderground v.1.13,2013-08-07 11:10:00,
2013-08-07 05:15:00,62.4,58.8,29.73,North,10,0.0,14.0,88,0.00,,,0.00,Wunderground v.1.13,2013-08-07 11:15:00,
2013-08-07 05:20:00,62.6,58.7,29.73,North,10,0.0,14.0,87,0.00,,,0.00,Wunderground v.1.13,2013-08-07 11:20:00,
2013-08-07 05:25:00,62.7,58.5,29.73,NNE,17,0.0,14.0,86,0.00,,,0.00,Wunderground v.1.13,2013-08-07 11:25:00,
2013-08-07 05:30:00,62.9,58.6,29.73,NNE,18,0.0,14.0,86,0.00,,,0.00,Wunderground v.1.13,2013-08-07 11:30:00,
2013-08-07 05:35:00,63.1,58.8,29.73,NNE,18,0.0,14.0,86,0.00,,,0.00,Wunderground v.1.13,2013-08-07 11:35:00,
2013-08-07 05:40:00,63.1,58.8,29.73,NNE,18,0.0,14.0,86,0.00,,,0.00,Wunderground v.1.13,2013-08-07 11:40:00,
2013-08-07 05:45:00,63.1,58.8,29.73,NNE,18,0.0,14.0,86,0.00,,,0.00,Wunderground v.1.13,2013-08-07 11:45:00,
2013-08-07 05:50:00,63.1,58.8,29.74,NNE,18,0.0,14.0,86,0.00,,,0.00,Wunderground v.1.13,2013-08-07 11:50:00,
2013-08-07 05:55:00,63.1,58.8,29.74,NNE,18,0.0,14.0,86,0.00,,,0.00,Wunderground v.1.13,2013-08-07 11:55:00,
2013-08-07 06:00:00,63.1,58.8,29.74,NNE,18,0.0,14.0,86,0.00,,,0.00,Wunderground v.1.13,2013-08-07 12:00:00,
2013-08-07 06:05:00,63.1,58.8,29.73,NNE,18,0.0,14.0,86,0.00,,,0.00,Wunderground v.1.13,2013-08-07 12:05:00,
2013-08-07 06:10:00,63.2,58.9,29.73,NNE,18,0.0,14.0,86,0.00,,,0.00,Wunderground v.1.13,2013-08-07 12:10:00,
2013-08-07 06:15:00,63.2,58.9,29.73,NNE,18,0.0,14.0,86,0.00,,,0.00,Wunderground v.1.13,2013-08-07 12:15:00,
2013-08-07 06:20:00,63.2,58.9,29.73,NNE,18,0.0,14.0,86,0.00,,,0.00,Wunderground v.1.13,2013-08-07 12:20:00,
2013-08-07 06:25:00,63.4,59.1,29.73,NNE,18,0.0,14.0,86,0.00,,,0.00,Wunderground v.1.13,2013-08-07 12:25:00,
2013-08-07 06:30:00,63.5,58.9,29.73,NNE,19,0.0,14.0,85,0.00,,,0.00,Wunderground v.1.13,2013-08-07 12:30:00,
2013-08-07 06:35:00,63.9,59.0,29.73,NE,50,0.0,14.0,84,0.00,,,0.00,Wunderground v.1.13,2013-08-07 12:35:00,
2013-08-07 06:40:00,64.2,58.9,29.73,NE,49,0.0,14.0,83,0.00,,,0.00,Wunderground v.1.13,2013-08-07 12:40:00,
2013-08-07 06:45:00,64.5,58.9,29.73,NE,49,0.0,14.0,82,0.00,,,0.00,Wunderground v.1.13,2013-08-07 12:45:00,
2013-08-07 06:55:00,65.3,59.3,29.74,NE,49,0.0,14.0,81,0.00,,,0.00,Wunderground v.1.13,2013-08-07 12:55:00,
2013-08-07 07:05:00,66.3,59.6,29.74,NE,50,0.0,14.0,79,0.00,,,0.00,Wunderground v.1.13,2013-08-07 13:05:00,
2013-08-07 07:09:00,66.4,59.3,29.74,NE,49,0.0,14.0,78,0.00,,,0.00,Wunderground v.1.13,2013-08-07 13:09:00,
2013-08-07 07:15:00,66.8,59.7,29.74,NE,46,0.0,14.0,78,0.00,,,0.00,Wunderground v.1.13,2013-08-07 13:15:00,
2013-08-07 07:25:00,67.3,59.1,29.74,NE,53,1.0,1.0,75,0.00,,,0.00,Wunderground v.1.13,2013-08-07 13:25:00,
2013-08-07 07:30:00,67.4,59.2,29.74,NE,51,0.0,14.0,75,0.00,,,0.00,Wunderground v.1.13,2013-08-07 13:30:00,
2013-08-07 07:35:00,67.6,59.4,29.75,NE,43,0.0,14.0,75,0.00,,,0.00,Wunderground v.1.13,2013-08-07 13:35:00,
2013-08-07 07:40:00,68.1,59.9,29.75,NE,43,0.0,14.0,75,0.00,,,0.00,Wunderground v.1.13,2013-08-07 13:40:00,
2013-08-07 07:45:00,68.6,60.4,29.75,NE,42,0.0,14.0,75,0.00,,,0.00,Wunderground v.1.13,2013-08-07 13:45:00,
2013-08-07 07:50:00,68.9,59.9,29.75,NE,42,0.0,14.0,73,0.00,,,0.00,Wunderground v.1.13,2013-08-07 13:50:00,
2013-08-07 08:00:00,69.6,59.8,29.75,NE,42,0.0,14.0,71,0.00,,,0.00,Wunderground v.1.13,2013-08-07 14:00:00,
2013-08-07 08:05:00,70.3,59.6,29.75,NE,42,0.0,14.0,69,0.00,,,0.00,Wunderground v.1.13,2013-08-07 14:05:00,
2013-08-07 08:10:00,70.6,59.5,29.75,ESE,123,0.0,14.0,68,0.00,,,0.00,Wunderground v.1.13,2013-08-07 14:10:00,
2013-08-07 08:15:00,70.8,59.7,29.75,SE,124,0.0,14.0,68,0.00,,,0.00,Wunderground v.1.13,2013-08-07 14:15:00,
2013-08-07 08:20:00,71.1,59.6,29.77,SE,124,0.0,14.0,67,0.00,,,0.00,Wunderground v.1.13,2013-08-07 14:20:00,
2013-08-07 08:25:00,70.9,59.8,29.77,SE,130,0.0,14.0,68,0.00,,,0.00,Wunderground v.1.13,2013-08-07 14:25:00,
2013-08-07 08:30:00,70.9,59.4,29.77,SE,142,0.0,14.0,67,0.00,,,0.00,Wunderground v.1.13,2013-08-07 14:30:00,
2013-08-07 08:35:00,70.9,59.8,29.77,SE,142,0.0,14.0,68,0.00,,,0.00,Wunderground v.1.13,2013-08-07 14:35:00,
2013-08-07 08:40:00,71.6,61.3,29.77,SE,144,0.0,14.0,70,0.00,,,0.00,Wunderground v.1.13,2013-08-07 14:40:00,
2013-08-07 08:49:00,71.8,60.2,29.77,SSE,150,0.0,14.0,67,0.00,,,0.00,Wunderground v.1.13,2013-08-07 14:49:00,
2013-08-07 08:55:00,71.6,60.1,29.77,SSE,155,0.0,14.0,67,0.00,,,0.00,Wunderground v.1.13,2013-08-07 14:55:00,
2013-08-07 09:00:00,72.0,60.4,29.77,SSE,153,0.0,14.0,67,0.00,,,0.00,Wunderground v.1.13,2013-08-07 15:00:00,
2013-08-07 09:05:00,72.5,60.9,29.77,SE,145,0.0,14.0,67,0.00,,,0.00,Wunderground v.1.13,2013-08-07 15:05:00,
2013-08-07 09:10:00,73.2,61.6,29.77,SE,145,0.0,14.0,67,0.00,,,0.00,Wunderground v.1.13,2013-08-07 15:10:00,
2013-08-07 09:20:00,73.3,61.3,29.78,SE,135,0.0,14.0,66,0.00,,,0.00,Wunderground v.1.13,2013-08-07 15:20:00,
2013-08-07 09:25:00,73.9,60.1,29.78,SE,138,0.0,14.0,62,0.00,,,0.00,Wunderground v.1.13,2013-08-07 15:25:00,
2013-08-07 09:30:00,74.2,59.4,29.78,SE,131,0.0,14.0,60,0.00,,,0.00,Wunderground v.1.13,2013-08-07 15:30:00,
2013-08-07 09:35:00,74.9,60.5,29.78,ESE,121,0.0,14.0,61,0.00,,,0.00,Wunderground v.1.13,2013-08-07 15:35:00,
2013-08-07 09:40:00,74.7,58.9,29.78,SSE,148,0.0,14.0,58,0.00,,,0.00,Wunderground v.1.13,2013-08-07 15:40:00,
2013-08-07 09:45:00,74.6,60.3,29.78,ENE,59,1.0,1.0,61,0.00,,,0.00,Wunderground v.1.13,2013-08-07 15:45:00,
2013-08-07 09:50:00,75.1,59.3,29.77,SE,144,1.0,1.0,58,0.00,,,0.00,Wunderground v.1.13,2013-08-07 15:50:00,
2013-08-07 09:55:00,75.3,59.0,29.77,SE,145,1.0,1.0,57,0.00,,,0.00,Wunderground v.1.13,2013-08-07 15:55:00,
2013-08-07 10:00:00,75.3,59.0,29.77,SE,138,1.0,1.0,57,0.00,,,0.00,Wunderground v.1.13,2013-08-07 16:00:00,
2013-08-07 10:05:00,75.6,59.8,29.77,SE,136,1.0,14.0,58,0.00,,,0.00,Wunderground v.1.13,2013-08-07 16:05:00,
2013-08-07 10:10:00,75.6,59.3,29.77,SE,145,1.0,1.0,57,0.00,,,0.00,Wunderground v.1.13,2013-08-07 16:10:00,
2013-08-07 10:15:00,75.4,58.6,29.77,South,173,2.0,2.0,56,0.00,,,0.00,Wunderground v.1.13,2013-08-07 16:15:00,
2013-08-07 10:20:00,75.4,58.6,29.77,SE,144,2.0,2.0,56,0.00,,,0.00,Wunderground v.1.13,2013-08-07 16:20:00,
2013-08-07 10:30:00,77.2,59.8,29.77,SE,141,1.0,1.0,55,0.00,,,0.00,Wunderground v.1.13,2013-08-07 16:30:00,
2013-08-07 10:35:00,77.2,58.7,29.77,SE,143,1.0,14.0,53,0.00,,,0.00,Wunderground v.1.13,2013-08-07 16:35:00,
2013-08-07 10:40:00,77.4,57.9,29.77,SSE,154,2.0,2.0,51,0.00,,,0.00,Wunderground v.1.13,2013-08-07 16:40:00,
2013-08-07 10:50:00,77.2,58.2,29.77,SSE,157,1.0,1.0,52,0.00,,,0.00,Wunderground v.1.13,2013-08-07 16:50:00,
2013-08-07 11:00:00,77.4,58.9,29.77,SE,144,2.0,14.0,53,0.00,,,0.00,Wunderground v.1.13,2013-08-07 17:00:00,
2013-08-07 11:05:00,76.8,58.4,29.77,SSE,151,3.0,3.0,53,0.00,,,0.00,Wunderground v.1.13,2013-08-07 17:05:00,
2013-08-07 11:10:00,76.8,59.4,29.77,SSE,157,2.0,2.0,55,0.00,,,0.00,Wunderground v.1.13,2013-08-07 17:10:00,
2013-08-07 11:15:00,77.4,59.5,29.77,SE,134,1.0,1.0,54,0.00,,,0.00,Wunderground v.1.13,2013-08-07 17:15:00,
2013-08-07 11:20:00,77.2,59.8,29.77,SSE,163,0.0,14.0,55,0.00,,,0.00,Wunderground v.1.13,2013-08-07 17:20:00,
2013-08-07 11:25:00,77.0,60.1,29.77,SSE,150,0.0,14.0,56,0.00,,,0.00,Wunderground v.1.13,2013-08-07 17:25:00,
2013-08-07 11:30:00,77.4,61.0,29.77,East,101,0.0,14.0,57,0.00,,,0.00,Wunderground v.1.13,2013-08-07 17:30:00,
2013-08-07 11:35:00,77.6,60.7,29.77,East,97,0.0,14.0,56,0.00,,,0.00,Wunderground v.1.13,2013-08-07 17:35:00,
2013-08-07 11:40:00,77.2,60.3,29.77,South,177,0.0,14.0,56,0.00,,,0.00,Wunderground v.1.13,2013-08-07 17:40:00,
2013-08-07 11:45:00,77.7,60.8,29.77,SSE,148,1.0,1.0,56,0.00,,,0.00,Wunderground v.1.13,2013-08-07 17:45:00,
2013-08-07 11:50:00,78.1,60.6,29.77,SE,139,0.0,14.0,55,0.00,,,0.00,Wunderground v.1.13,2013-08-07 17:50:00,
2013-08-07 11:55:00,78.1,60.1,29.77,SSE,159,0.0,14.0,54,0.00,,,0.00,Wunderground v.1.13,2013-08-07 17:55:00,
2013-08-07 12:00:00,77.9,60.4,29.77,SSE,155,0.0,14.0,55,0.00,,,0.00,Wunderground v.1.13,2013-08-07 18:00:00,
2013-08-07 12:05:00,78.1,60.6,29.77,SE,136,1.0,1.0,55,0.00,,,0.00,Wunderground v.1.13,2013-08-07 18:05:00,
2013-08-07 12:10:00,78.3,60.8,29.77,SE,134,0.0,14.0,55,0.00,,,0.00,Wunderground v.1.13,2013-08-07 18:10:00,
2013-08-07 12:20:00,79.0,60.9,29.77,South,173,0.0,14.0,54,0.00,,,0.00,Wunderground v.1.13,2013-08-07 18:20:00,
2013-08-07 12:25:00,79.0,61.5,29.77,SE,144,0.0,14.0,55,0.00,,,0.00,Wunderground v.1.13,2013-08-07 18:25:00,
2013-08-07 12:30:00,78.5,59.9,29.77,SSE,147,0.0,14.0,53,0.00,,,0.00,Wunderground v.1.13,2013-08-07 18:30:00,
2013-08-07 12:40:00,77.9,59.9,29.77,SSE,164,0.0,14.0,54,0.00,,,0.00,Wunderground v.1.13,2013-08-07 18:40:00,
2013-08-07 12:45:00,77.9,60.4,29.77,SE,143,0.0,14.0,55,0.00,,,0.00,Wunderground v.1.13,2013-08-07 18:45:00,
2013-08-07 12:50:00,77.7,60.2,29.77,SSE,155,1.0,1.0,55,0.00,,,0.00,Wunderground v.1.13,2013-08-07 18:50:00,
2013-08-07 12:55:00,77.9,61.4,29.77,SSE,159,1.0,1.0,57,0.00,,,0.00,Wunderground v.1.13,2013-08-07 18:55:00,
2013-08-07 13:00:00,77.9,61.4,29.77,SSW,192,1.0,1.0,57,0.00,,,0.00,Wunderground v.1.13,2013-08-07 19:00:00,
2013-08-07 13:05:00,77.9,61.4,29.77,SSE,147,1.0,14.0,57,0.00,,,0.00,Wunderground v.1.13,2013-08-07 19:05:00,
2013-08-07 13:10:00,77.6,62.1,29.77,SW,215,2.0,14.0,59,0.00,,,0.00,Wunderground v.1.13,2013-08-07 19:10:00,
2013-08-07 13:15:00,77.2,62.7,29.77,South,184,2.0,2.0,61,0.00,,,0.00,Wunderground v.1.13,2013-08-07 19:15:00,
2013-08-07 13:20:00,77.2,62.2,29.77,SSW,200,2.0,14.0,60,0.00,,,0.00,Wunderground v.1.13,2013-08-07 19:20:00,
2013-08-07 13:25:00,77.0,62.0,29.77,SSE,163,2.0,2.0,60,0.00,,,0.00,Wunderground v.1.13,2013-08-07 19:25:00,
2013-08-07 13:30:00,76.8,62.3,29.77,South,181,3.0,3.0,61,0.00,,,0.00,Wunderground v.1.13,2013-08-07 19:30:00,
2013-08-07 13:35:00,76.7,63.2,29.78,SSW,195,3.0,3.0,63,0.00,,,0.00,Wunderground v.1.13,2013-08-07 19:35:00,
2013-08-07 13:40:00,76.5,63.4,29.78,SSW,197,3.0,3.0,64,0.00,,,0.00,Wunderground v.1.13,2013-08-07 19:40:00,
2013-08-07 13:45:00,76.3,63.2,29.78,South,179,3.0,14.0,64,0.00,,,0.00,Wunderground v.1.13,2013-08-07 19:45:00,
2013-08-07 13:50:00,76.0,62.9,29.78,SSW,207,5.0,14.0,64,0.00,,,0.00,Wunderground v.1.13,2013-08-07 19:50:00,
2013-08-07 13:55:00,75.8,62.8,29.78,South,169,5.0,5.0,64,0.00,,,0.00,Wunderground v.1.13,2013-08-07 19:55:00,
2013-08-07 14:00:00,75.6,62.6,29.78,SW,224,4.0,14.0,64,0.00,,,0.00,Wunderground v.1.13,2013-08-07 20:00:00,
2013-08-07 14:05:00,75.8,62.8,29.78,South,191,3.0,14.0,64,0.00,,,0.00,Wunderground v.1.13,2013-08-07 20:05:00,
2013-08-07 14:15:00,74.0,62.3,29.78,SW,221,4.0,14.0,67,0.00,,,0.00,Wunderground v.1.13,2013-08-07 20:15:00,
2013-08-07 14:20:00,73.5,61.9,29.79,WSW,244,3.0,14.0,67,0.00,,,0.00,Wunderground v.1.13,2013-08-07 20:20:00,
2013-08-07 14:25:00,73.0,61.4,29.79,SSW,195,4.0,4.0,67,0.00,,,0.00,Wunderground v.1.13,2013-08-07 20:25:00,
2013-08-07 14:30:00,72.8,61.2,29.79,SSW,205,4.0,14.0,67,0.00,,,0.00,Wunderground v.1.13,2013-08-07 20:30:00,
2013-08-07 14:35:00,72.7,61.1,29.79,SW,227,4.0,14.0,67,0.00,,,0.00,Wunderground v.1.13,2013-08-07 20:35:00,
2013-08-07 14:45:00,72.5,60.9,29.79,WSW,247,3.0,3.0,67,0.00,,,0.00,Wunderground v.1.13,2013-08-07 20:45:00,
2013-08-07 14:50:00,72.7,61.1,29.78,SSW,200,2.0,14.0,67,0.00,,,0.00,Wunderground v.1.13,2013-08-07 20:50:00,
2013-08-07 14:54:00,72.5,60.5,29.78,SSW,192,2.0,14.0,66,0.00,,,0.00,Wunderground v.1.13,2013-08-07 20:54:00,
2013-08-07 15:00:00,72.5,60.1,29.78,SSW,207,3.0,3.0,65,0.00,,,0.00,Wunderground v.1.13,2013-08-07 21:00:00,
2013-08-07 15:05:00,72.7,60.3,29.77,SSW,195,3.0,3.0,65,0.00,,,0.00,Wunderground v.1.13,2013-08-07 21:05:00,
2013-08-07 15:10:00,72.8,60.8,29.77,South,182,1.0,1.0,66,0.00,,,0.00,Wunderground v.1.13,2013-08-07 21:10:00,
2013-08-07 15:15:00,73.0,60.5,29.77,South,190,0.0,14.0,65,0.00,,,0.00,Wunderground v.1.13,2013-08-07 21:15:00,
2013-08-07 15:20:00,73.3,60.4,29.75,SSW,209,0.0,14.0,64,0.00,,,0.00,Wunderground v.1.13,2013-08-07 21:20:00,
2013-08-07 15:25:00,73.3,59.9,29.75,South,176,0.0,14.0,63,0.00,,,0.00,Wunderground v.1.13,2013-08-07 21:25:00,
2013-08-07 15:30:00,73.3,59.9,29.75,SSE,163,0.0,14.0,63,0.00,,,0.00,Wunderground v.1.13,2013-08-07 21:30:00,
2013-08-07 15:35:00,73.9,61.0,29.75,SSE,163,0.0,14.0,64,0.00,,,0.00,Wunderground v.1.13,2013-08-07 21:35:00,
2013-08-07 15:40:00,74.2,59.9,29.75,SW,217,0.0,14.0,61,0.00,,,0.00,Wunderground v.1.13,2013-08-07 21:40:00,
2013-08-07 15:45:00,74.4,59.1,29.75,SW,221,0.0,14.0,59,0.00,,,0.00,Wunderground v.1.13,2013-08-07 21:45:00,
2013-08-07 15:50:00,74.6,59.3,29.76,SW,236,0.0,14.0,59,0.00,,,0.00,Wunderground v.1.13,2013-08-07 21:50:00,
2013-08-07 15:55:00,74.6,59.3,29.76,West,276,0.0,14.0,59,0.00,,,0.00,Wunderground v.1.13,2013-08-07 21:55:00,
2013-08-07 16:00:00,74.6,59.3,29.76,West,273,0.0,14.0,59,0.00,,,0.00,Wunderground v.1.13,2013-08-07 22:00:00,
2013-08-07 16:05:00,74.9,59.6,29.76,WNW,285,0.0,14.0,59,0.00,,,0.00,Wunderground v.1.13,2013-08-07 22:05:00,
2013-08-07 16:10:00,75.1,59.8,29.76,WNW,287,0.0,14.0,59,0.00,,,0.00,Wunderground v.1.13,2013-08-07 22:10:00,
2013-08-07 16:15:00,75.1,59.8,29.76,West,275,0.0,14.0,59,0.00,,,0.00,Wunderground v.1.13,2013-08-07 22:15:00,
2013-08-07 16:20:00,74.9,59.1,29.75,West,281,0.0,14.0,58,0.00,,,0.00,Wunderground v.1.13,2013-08-07 22:20:00,
2013-08-07 16:30:00,74.7,59.9,29.75,WNW,298,0.0,14.0,60,0.00,,,0.00,Wunderground v.1.13,2013-08-07 22:30:00,
2013-08-07 16:34:00,74.7,59.9,29.76,WSW,257,0.0,14.0,60,0.00,,,0.00,Wunderground v.1.13,2013-08-07 22:34:00,
2013-08-07 16:40:00,74.7,59.9,29.76,SSW,207,0.0,14.0,60,0.00,,,0.00,Wunderground v.1.13,2013-08-07 22:40:00,
2013-08-07 16:50:00,74.0,59.7,29.75,SSW,206,2.0,2.0,61,0.00,,,0.00,Wunderground v.1.13,2013-08-07 22:50:00,
2013-08-07 16:54:00,74.0,59.2,29.75,SSW,206,1.0,1.0,60,0.00,,,0.00,Wunderground v.1.13,2013-08-07 22:54:00,
2013-08-07 17:00:00,74.0,59.2,29.75,SW,227,0.0,14.0,60,0.00,,,0.00,Wunderground v.1.13,2013-08-07 23:00:00,
2013-08-07 17:05:00,73.9,59.1,29.74,South,188,0.0,14.0,60,0.00,,,0.00,Wunderground v.1.13,2013-08-07 23:05:00,
2013-08-07 17:10:00,73.9,59.6,29.74,South,191,0.0,14.0,61,0.00,,,0.00,Wunderground v.1.13,2013-08-07 23:10:00,
2013-08-07 17:15:00,73.9,60.1,29.74,South,188,0.0,14.0,62,0.00,,,0.00,Wunderground v.1.13,2013-08-07 23:15:00,
2013-08-07 17:20:00,73.5,59.7,29.74,SSW,199,1.0,14.0,62,0.00,,,0.00,Wunderground v.1.13,2013-08-07 23:20:00,
2013-08-07 17:25:00,73.3,59.9,29.74,SW,219,1.0,1.0,63,0.00,,,0.00,Wunderground v.1.13,2013-08-07 23:25:00,
2013-08-07 17:29:00,73.3,59.5,29.74,SSW,211,1.0,1.0,62,0.00,,,0.00,Wunderground v.1.13,2013-08-07 23:29:00,
2013-08-07 17:35:00,73.2,58.9,29.74,SSW,201,1.0,1.0,61,0.00,,,0.00,Wunderground v.1.13,2013-08-07 23:35:00,
2013-08-07 17:40:00,73.0,58.3,29.74,SSW,202,1.0,1.0,60,0.00,,,0.00,Wunderground v.1.13,2013-08-07 23:40:00,
2013-08-07 17:45:00,72.8,58.1,29.74,SSW,210,0.0,14.0,60,0.00,,,0.00,Wunderground v.1.13,2013-08-07 23:45:00,
2013-08-07 17:55:00,72.7,59.8,29.73,South,173,0.0,14.0,64,0.00,,,0.00,Wunderground v.1.13,2013-08-07 23:55:00,
2013-08-07 18:00:00,73.0,59.7,29.73,South,173,0.0,14.0,63,0.00,,,0.00,Wunderground v.1.13,2013-08-08 00:00:00,
2013-08-07 18:05:00,72.8,59.5,29.73,South,173,0.0,14.0,63,0.00,,,0.00,Wunderground v.1.13,2013-08-08 00:05:00,
2013-08-07 18:10:00,72.8,59.5,29.73,South,173,0.0,14.0,63,0.00,,,0.00,Wunderground v.1.13,2013-08-08 00:10:00,
2013-08-07 18:15:00,72.8,59.5,29.73,South,173,0.0,14.0,63,0.00,,,0.00,Wunderground v.1.13,2013-08-08 00:15:00,
2013-08-07 18:20:00,73.2,59.4,29.73,South,173,0.0,14.0,62,0.00,,,0.00,Wunderground v.1.13,2013-08-08 00:20:00,
2013-08-07 18:25:00,73.2,58.9,29.73,South,173,0.0,14.0,61,0.00,,,0.00,Wunderground v.1.13,2013-08-08 00:25:00,
2013-08-07 18:30:00,73.2,59.4,29.73,South,173,0.0,14.0,62,0.00,,,0.00,Wunderground v.1.13,2013-08-08 00:30:00,
2013-08-07 18:40:00,73.0,58.8,29.73,South,173,0.0,14.0,61,0.00,,,0.00,Wunderground v.1.13,2013-08-08 00:40:00,
2013-08-07 18:45:00,73.0,59.2,29.73,South,173,0.0,14.0,62,0.00,,,0.00,Wunderground v.1.13,2013-08-08 00:45:00,
2013-08-07 18:50:00,73.0,59.2,29.74,South,173,0.0,14.0,62,0.00,,,0.00,Wunderground v.1.13,2013-08-08 00:50:00,
2013-08-07 18:55:00,73.0,59.7,29.74,South,173,0.0,14.0,63,0.00,,,0.00,Wunderground v.1.13,2013-08-08 00:55:00,
2013-08-07 18:59:00,73.0,60.1,29.74,South,173,0.0,14.0,64,0.00,,,0.00,Wunderground v.1.13,2013-08-08 00:59:00,
2013-08-07 19:05:00,73.0,60.1,29.73,South,173,0.0,14.0,64,0.00,,,0.00,Wunderground v.1.13,2013-08-08 01:05:00,
2013-08-07 19:10:00,73.0,60.1,29.73,South,173,0.0,14.0,64,0.00,,,0.00,Wunderground v.1.13,2013-08-08 01:10:00,
2013-08-07 19:15:00,72.8,60.3,29.73,South,173,0.0,14.0,65,0.00,,,0.00,Wunderground v.1.13,2013-08-08 01:15:00,
2013-08-07 19:20:00,72.5,60.1,29.73,South,173,0.0,14.0,65,0.00,,,0.00,Wunderground v.1.13,2013-08-08 01:20:00,
2013-08-07 19:25:00,72.5,60.1,29.73,South,173,0.0,14.0,65,0.00,,,0.00,Wunderground v.1.13,2013-08-08 01:25:00,
2013-08-07 19:30:00,72.1,60.1,29.73,SSE,164,0.0,14.0,66,0.00,,,0.00,Wunderground v.1.13,2013-08-08 01:30:00,
2013-08-07 19:40:00,71.5,60.0,29.73,SSE,163,0.0,14.0,67,0.00,,,0.00,Wunderground v.1.13,2013-08-08 01:40:00,
2013-08-07 19:45:00,71.1,60.4,29.73,SSE,163,0.0,14.0,69,0.00,,,0.00,Wunderground v.1.13,2013-08-08 01:45:00,
2013-08-07 19:50:00,70.8,60.5,29.72,SSE,164,0.0,14.0,70,0.00,,,0.00,Wunderground v.1.13,2013-08-08 01:50:00,
2013-08-07 19:55:00,70.4,60.1,29.72,SSE,163,0.0,14.0,70,0.00,,,0.00,Wunderground v.1.13,2013-08-08 01:55:00,
2013-08-07 20:00:00,70.1,60.3,29.72,SSE,163,0.0,14.0,71,0.00,,,0.00,Wunderground v.1.13,2013-08-08 02:00:00,
2013-08-07 20:05:00,69.9,60.5,29.73,SSE,163,0.0,14.0,72,0.00,,,0.00,Wunderground v.1.13,2013-08-08 02:05:00,
2013-08-07 20:15:00,69.1,60.5,29.73,SSE,163,0.0,14.0,74,0.00,,,0.00,Wunderground v.1.13,2013-08-08 02:15:00,
2013-08-07 20:19:00,68.8,60.6,29.73,SSE,163,0.0,14.0,75,0.00,,,0.00,Wunderground v.1.13,2013-08-08 02:19:00,
2013-08-07 20:25:00,68.4,60.5,29.73,SSE,163,0.0,14.0,76,0.00,,,0.00,Wunderground v.1.13,2013-08-08 02:25:00,
2013-08-07 20:30:00,68.1,60.6,29.73,SSE,163,0.0,14.0,77,0.00,,,0.00,Wunderground v.1.13,2013-08-08 02:30:00,
2013-08-07 20:40:00,67.6,60.5,29.74,SSE,163,0.0,14.0,78,0.00,,,0.00,Wunderground v.1.13,2013-08-08 02:40:00,
2013-08-07 20:45:00,67.4,60.7,29.74,SSE,163,0.0,14.0,79,0.00,,,0.00,Wunderground v.1.13,2013-08-08 02:45:00,
2013-08-07 20:50:00,67.1,60.4,29.75,SSE,163,0.0,14.0,79,0.00,,,0.00,Wunderground v.1.13,2013-08-08 02:50:00,
2013-08-07 20:55:00,66.8,60.4,29.75,SSE,163,0.0,14.0,80,0.00,,,0.00,Wunderground v.1.13,2013-08-08 02:55:00,
2013-08-07 21:00:00,66.4,60.4,29.75,SSE,163,0.0,14.0,81,0.00,,,0.00,Wunderground v.1.13,2013-08-08 03:00:00,
2013-08-07 21:05:00,66.1,60.1,29.74,SSE,163,0.0,14.0,81,0.00,,,0.00,Wunderground v.1.13,2013-08-08 03:05:00,
2013-08-07 21:15:00,65.6,60.0,29.74,SSE,163,0.0,14.0,82,0.00,,,0.00,Wunderground v.1.13,2013-08-08 03:15:00,
2013-08-07 21:20:00,65.3,60.0,29.74,SSE,163,0.0,14.0,83,0.00,,,0.00,Wunderground v.1.13,2013-08-08 03:20:00,
2013-08-07 21:25:00,65.2,59.9,29.74,SSE,163,0.0,14.0,83,0.00,,,0.00,Wunderground v.1.13,2013-08-08 03:25:00,
2013-08-07 21:30:00,65.0,60.0,29.74,SSE,163,0.0,14.0,84,0.00,,,0.00,Wunderground v.1.13,2013-08-08 03:30:00,
2013-08-07 21:35:00,65.0,60.0,29.74,SSE,163,0.0,14.0,84,0.00,,,0.00,Wunderground v.1.13,2013-08-08 03:35:00,
2013-08-07 21:45:00,65.0,60.4,29.74,SSE,163,0.0,14.0,85,0.00,,,0.00,Wunderground v.1.13,2013-08-08 03:45:00,
2013-08-07 21:55:00,64.7,60.4,29.74,SSE,163,0.0,14.0,86,0.00,,,0.00,Wunderground v.1.13,2013-08-08 03:55:00,
2013-08-07 22:05:00,64.5,60.2,29.75,SSE,163,0.0,14.0,86,0.00,,,0.00,Wunderground v.1.13,2013-08-08 04:05:00,
2013-08-07 22:10:00,64.5,60.2,29.75,SSE,163,0.0,14.0,86,0.00,,,0.00,Wunderground v.1.13,2013-08-08 04:10:00,
2013-08-07 22:15:00,64.3,60.3,29.75,SSE,163,0.0,14.0,87,0.00,,,0.00,Wunderground v.1.13,2013-08-08 04:15:00,
2013-08-07 22:20:00,64.2,60.6,29.76,SSE,163,0.0,14.0,88,0.00,,,0.00,Wunderground v.1.13,2013-08-08 04:20:00,
2013-08-07 22:25:00,64.0,60.4,29.76,SSE,163,0.0,14.0,88,0.00,,,0.00,Wunderground v.1.13,2013-08-08 04:25:00,
2013-08-07 22:30:00,63.9,60.6,29.76,SSE,163,0.0,14.0,89,0.00,,,0.00,Wunderground v.1.13,2013-08-08 04:30:00,
2013-08-07 22:35:00,63.9,60.6,29.77,SSE,163,0.0,14.0,89,0.00,,,0.00,Wunderground v.1.13,2013-08-08 04:35:00,
2013-08-07 22:40:00,63.7,60.4,29.77,SSE,163,0.0,14.0,89,0.00,,,0.00,Wunderground v.1.13,2013-08-08 04:40:00,
2013-08-07 22:45:00,63.9,60.6,29.77,SSE,163,0.0,14.0,89,0.00,,,0.00,Wunderground v.1.13,2013-08-08 04:45:00,
2013-08-07 22:50:00,64.2,60.9,29.78,SSE,163,0.0,14.0,89,0.00,,,0.00,Wunderground v.1.13,2013-08-08 04:50:00,
2013-08-07 22:55:00,64.2,60.9,29.78,SSE,163,0.0,14.0,89,0.00,,,0.00,Wunderground v.1.13,2013-08-08 04:55:00,
2013-08-07 23:05:00,64.0,60.7,29.79,SSE,163,0.0,14.0,89,0.00,,,0.00,Wunderground v.1.13,2013-08-08 05:05:00,
2013-08-07 23:10:00,64.0,60.7,29.79,SSE,163,0.0,14.0,89,0.00,,,0.00,Wunderground v.1.13,2013-08-08 05:10:00,
2013-08-07 23:15:00,64.0,60.7,29.79,SSE,163,0.0,14.0,89,0.00,,,0.00,Wunderground v.1.13,2013-08-08 05:15:00,
2013-08-07 23:25:00,64.0,60.7,29.79,SSE,164,0.0,14.0,89,0.00,,,0.00,Wunderground v.1.13,2013-08-08 05:25:00,
2013-08-07 23:30:00,63.9,60.6,29.79,SSE,164,0.0,14.0,89,0.00,,,0.00,Wunderground v.1.13,2013-08-08 05:30:00,
2013-08-07 23:35:00,63.9,60.6,29.79,SSE,164,0.0,14.0,89,0.00,,,0.00,Wunderground v.1.13,2013-08-08 05:35:00,
2013-08-07 23:40:00,63.9,60.6,29.79,SSE,164,0.0,14.0,89,0.00,,,0.00,Wunderground v.1.13,2013-08-08 05:40:00,
2013-08-07 23:45:00,63.7,60.4,29.79,SSE,164,0.0,14.0,89,0.00,,,0.00,Wunderground v.1.13,2013-08-08 05:45:00,
2013-08-07 23:50:00,63.9,60.6,29.79,SSE,164,0.0,14.0,89,0.00,,,0.00,Wunderground v.1.13,2013-08-08 05:50:00,
2013-08-07 23:55:00,63.7,60.4,29.79,SSE,164,0.0,14.0,89,0.00,,,0.00,Wunderground v.1.13,2013-08-08 05:55:00,